JBU499 KLGA-KMCO

Flight info

Callsign JBU499
Flight time N/A
Altitude 36000
Route WHITE Q409 CRPLR Q85 LPERD SNFLD3
Aircraft A320/M-SDE3FGHIRWY/LB1

Departure

Time N/A
Airport LaGuardia Airport (KLGA)

Arrival

Time 2026-04-20 18:14
Airport Orlando International Airport (KMCO)
Time Latitude Longitude Altitude Speed Heading
2026-04-20 17:41 31.10370 -81.28276 36330 ft 470 kts 194°
2026-04-20 17:42 31.07089 -81.28261 36337 ft 471 kts 194°
2026-04-20 17:42 31.00564 -81.28234 36350 ft 471 kts 193°
2026-04-20 17:43 30.94003 -81.28209 36309 ft 471 kts 193°
2026-04-20 17:43 30.87449 -81.28186 36340 ft 470 kts 193°
2026-04-20 17:44 30.80935 -81.28167 36350 ft 470 kts 193°
2026-04-20 17:44 30.74373 -81.28154 36347 ft 470 kts 193°
2026-04-20 17:44 30.71096 -81.28153 36110 ft 469 kts 193°
2026-04-20 17:45 30.67835 -81.28148 35869 ft 468 kts 193°
2026-04-20 17:45 30.64615 -81.28139 35514 ft 468 kts 193°
2026-04-20 17:45 30.61347 -81.28133 34634 ft 472 kts 192°
2026-04-20 17:45 30.58040 -81.28077 33886 ft 475 kts 190°
2026-04-20 17:46 30.54747 -81.27887 33618 ft 473 kts 188°
2026-04-20 17:46 30.51455 -81.27615 33348 ft 475 kts 187°
2026-04-20 17:46 30.48154 -81.27307 32975 ft 476 kts 187°
2026-04-20 17:46 30.44840 -81.26996 32611 ft 477 kts 187°
2026-04-20 17:47 30.41528 -81.26704 32250 ft 478 kts 187°
2026-04-20 17:47 30.38209 -81.26434 31882 ft 478 kts 187°
2026-04-20 17:47 30.34915 -81.26187 31517 ft 479 kts 187°
2026-04-20 17:47 30.31568 -81.25946 31147 ft 480 kts 187°
2026-04-20 17:48 30.28228 -81.25706 30777 ft 481 kts 187°
2026-04-20 17:48 30.24879 -81.25463 30411 ft 483 kts 186°
2026-04-20 17:48 30.21520 -81.25215 29991 ft 482 kts 186°
2026-04-20 17:48 30.18213 -81.24964 29637 ft 479 kts 186°
2026-04-20 17:49 30.14890 -81.24707 29274 ft 476 kts 186°
2026-04-20 17:49 30.11596 -81.24453 28905 ft 473 kts 186°
2026-04-20 17:49 30.08320 -81.24201 28534 ft 469 kts 185°
2026-04-20 17:49 30.05072 -81.23953 28191 ft 465 kts 185°
2026-04-20 17:50 30.01891 -81.23714 27840 ft 461 kts 185°
2026-04-20 17:50 29.98690 -81.23476 27488 ft 458 kts 185°
2026-04-20 17:50 29.95519 -81.23240 27138 ft 455 kts 185°
2026-04-20 17:50 29.92370 -81.23008 26791 ft 452 kts 185°
2026-04-20 17:51 29.89236 -81.22780 26441 ft 449 kts 185°
2026-04-20 17:51 29.86131 -81.22552 26100 ft 446 kts 185°
2026-04-20 17:51 29.83046 -81.22325 25760 ft 443 kts 185°
2026-04-20 17:51 29.80016 -81.22099 25416 ft 440 kts 185°
2026-04-20 17:52 29.76973 -81.21871 25088 ft 437 kts 185°
2026-04-20 17:52 29.73942 -81.21645 24750 ft 434 kts 185°
2026-04-20 17:52 29.70939 -81.21426 24408 ft 431 kts 185°
2026-04-20 17:52 29.67954 -81.21199 24082 ft 429 kts 184°
2026-04-20 17:53 29.64987 -81.20953 23735 ft 426 kts 184°
2026-04-20 17:53 29.62031 -81.20693 23370 ft 424 kts 184°
2026-04-20 17:53 29.59094 -81.20428 23054 ft 422 kts 183°
2026-04-20 17:53 29.56195 -81.20169 22736 ft 421 kts 183°
2026-04-20 17:54 29.53264 -81.19914 22376 ft 419 kts 182°
2026-04-20 17:54 29.50351 -81.19667 22097 ft 418 kts 183°
2026-04-20 17:54 29.47478 -81.19425 21780 ft 417 kts 183°
2026-04-20 17:54 29.44585 -81.19184 21459 ft 415 kts 182°
2026-04-20 17:55 29.41708 -81.18944 21142 ft 413 kts 182°
2026-04-20 17:55 29.38840 -81.18700 20825 ft 412 kts 182°
2026-04-20 17:55 29.35983 -81.18453 20491 ft 410 kts 182°
2026-04-20 17:55 29.33183 -81.18211 20182 ft 408 kts 182°
2026-04-20 17:56 29.30318 -81.17964 19864 ft 406 kts 182°
2026-04-20 17:56 29.27528 -81.17724 19536 ft 404 kts 182°
2026-04-20 17:56 29.24725 -81.17482 19249 ft 403 kts 182°
2026-04-20 17:56 29.21928 -81.17238 18940 ft 401 kts 181°
2026-04-20 17:57 29.19151 -81.16859 18623 ft 404 kts 174°
2026-04-20 17:57 29.16436 -81.15952 18263 ft 408 kts 164°
2026-04-20 17:57 29.13778 -81.14801 17713 ft 406 kts 163°
2026-04-20 17:57 29.11152 -81.13649 17426 ft 403 kts 163°
2026-04-20 17:58 29.08567 -81.12512 17112 ft 402 kts 163°
2026-04-20 17:58 29.05960 -81.11380 16811 ft 399 kts 164°
2026-04-20 17:58 29.03344 -81.10321 16499 ft 397 kts 165°
2026-04-20 17:58 29.00728 -81.09330 16198 ft 393 kts 166°
2026-04-20 17:59 28.98159 -81.08408 15961 ft 379 kts 169°
2026-04-20 17:59 28.95610 -81.07916 15624 ft 366 kts 179°
2026-04-20 17:59 28.93112 -81.07668 15258 ft 363 kts 178°
2026-04-20 17:59 28.90597 -81.07402 14821 ft 360 kts 180°
2026-04-20 18:00 28.88117 -81.07484 14381 ft 354 kts 192°
2026-04-20 18:00 28.85733 -81.08097 13950 ft 348 kts 202°
2026-04-20 18:00 28.83463 -81.09039 13500 ft 346 kts 203°
2026-04-20 18:00 28.81211 -81.09982 13082 ft 344 kts 204°
2026-04-20 18:01 28.78966 -81.10919 12664 ft 342 kts 205°
2026-04-20 18:01 28.76769 -81.11831 12320 ft 336 kts 204°
2026-04-20 18:01 28.74599 -81.12725 12194 ft 323 kts 204°
2026-04-20 18:01 28.72524 -81.13584 12063 ft 312 kts 204°
2026-04-20 18:02 28.70522 -81.14398 11869 ft 307 kts 200°
2026-04-20 18:02 28.68445 -81.14985 11520 ft 309 kts 195°
2026-04-20 18:02 28.66351 -81.15535 11182 ft 307 kts 195°
2026-04-20 18:02 28.64275 -81.16073 10813 ft 302 kts 195°
2026-04-20 18:03 28.62226 -81.16601 10182 ft 300 kts 196°
2026-04-20 18:03 28.60203 -81.17124 9568 ft 296 kts 197°
2026-04-20 18:03 28.58247 -81.17630 9209 ft 284 kts 195°
2026-04-20 18:03 28.56361 -81.18115 8907 ft 272 kts 196°
2026-04-20 18:04 28.54516 -81.18559 8783 ft 271 kts 189°
2026-04-20 18:04 28.52631 -81.18660 8665 ft 273 kts 183°
2026-04-20 18:04 28.50735 -81.18679 8364 ft 273 kts 184°
2026-04-20 18:04 28.48814 -81.18698 8025 ft 276 kts 183°
2026-04-20 18:05 28.44940 -81.18725 7363 ft 281 kts 182°
2026-04-20 18:05 28.42994 -81.18736 7184 ft 275 kts 183°
2026-04-20 18:05 28.41104 -81.18747 6835 ft 273 kts 183°
2026-04-20 18:06 28.39197 -81.18760 6229 ft 274 kts 182°
2026-04-20 18:06 28.37312 -81.18774 5787 ft 269 kts 180°
2026-04-20 18:06 28.35451 -81.18788 5358 ft 263 kts 180°
2026-04-20 18:06 28.33660 -81.18801 5077 ft 250 kts 180°
2026-04-20 18:07 28.31979 -81.18815 5004 ft 232 kts 180°
2026-04-20 18:07 28.30397 -81.18825 4998 ft 223 kts 180°
2026-04-20 18:07 28.28857 -81.18829 5002 ft 224 kts 179°
2026-04-20 18:07 28.27302 -81.18836 5002 ft 222 kts 179°
2026-04-20 18:08 28.25744 -81.18843 5001 ft 224 kts 181°
2026-04-20 18:08 28.24725 -81.18948 4935 ft 221 kts 195°
2026-04-20 18:08 28.23412 -81.19827 4579 ft 219 kts 233°
2026-04-20 18:08 28.22750 -81.21837 4336 ft 203 kts 270°
2026-04-20 18:09 28.22678 -81.22916 4160 ft 203 kts 275°
2026-04-20 18:09 28.22920 -81.24444 3969 ft 198 kts 290°
2026-04-20 18:09 28.23400 -81.25889 3755 ft 192 kts 308°
2026-04-20 18:09 28.24210 -81.27026 3433 ft 181 kts 326°
2026-04-20 18:10 28.25260 -81.27766 3036 ft 176 kts 347°
2026-04-20 18:10 28.26428 -81.28067 2984 ft 173 kts
2026-04-20 18:10 28.27637 -81.28088 2844 ft 174 kts
2026-04-20 18:10 28.28853 -81.28100 2642 ft 175 kts
2026-04-20 18:11 28.30071 -81.28112 2429 ft 175 kts
2026-04-20 18:11 28.31279 -81.28124 2199 ft 176 kts
2026-04-20 18:11 28.32501 -81.28137 1992 ft 173 kts
2026-04-20 18:11 28.33696 -81.28150 1753 ft 170 kts
2026-04-20 18:12 28.34846 -81.28163 1504 ft 158 kts
2026-04-20 18:12 28.35887 -81.28175 1321 ft 139 kts
2026-04-20 18:12 28.36813 -81.28184 1155 ft 129 kts
2026-04-20 18:12 28.37682 -81.28192 987 ft 124 kts
2026-04-20 18:13 28.38541 -81.28206 799 ft 128 kts
2026-04-20 18:13 28.39421 -81.28224 642 ft 125 kts
2026-04-20 18:13 28.40292 -81.28225 471 ft 126 kts
2026-04-20 18:13 28.41172 -81.28220 293 ft 126 kts
2026-04-20 18:14 28.42046 -81.28236 133 ft 128 kts
2026-04-20 18:14 28.42809 -81.28241 104 ft 87 kts 358°
2026-04-20 18:14 28.43237 -81.28244 100 ft 36 kts 358°
2026-04-20 18:14 28.43454 -81.28262 101 ft 26 kts 343°
2026-04-20 18:15 28.43552 -81.28353 103 ft 15 kts 316°
2026-04-20 18:15 28.43655 -81.28376 105 ft 17 kts 359°
2026-04-20 18:15 28.43780 -81.28377 106 ft 19 kts 359°
2026-04-20 18:15 28.43867 -81.28399 108 ft 12 kts 309°
2026-04-20 18:16 28.43875 -81.28508 107 ft 16 kts 270°
2026-04-20 18:16 28.43874 -81.28645 107 ft 19 kts 270°
2026-04-20 18:16 28.43873 -81.28803 107 ft 22 kts 270°
2026-04-20 18:16 28.43872 -81.28986 107 ft 25 kts 269°
2026-04-20 18:17 28.43871 -81.29143 101 ft 20 kts 269°
2026-04-20 18:17 28.43857 -81.29249 101 ft 11 kts 233°
2026-04-20 18:17 28.43782 -81.29264 102 ft 12 kts 176°
2026-04-20 18:17 28.43689 -81.29263 103 ft 15 kts 180°
2026-04-20 18:18 28.42584 -81.31459 101 ft 0 kts 323°